TOURFACTS.DK  
Stats and Facts from Tour de France.

Tour de France 2018 starts in 69 days
  Riders   Stages   Teams   Summits   Yearly  


 
Search by year

After 2017 - Stage 21:
 14824 starters.
  5132 different riders.
  638 teams.
  2232 stages.
  456 restdays.
  439589.60 km.
  5653 abandonnees.


Top 3
GC
Christopher Froome86:20:55
Rigoberto Urán86:21:49
Romain Bardet86:23:15
Climb
Warren Barguil169 pt.
Primoz Roglic80 pt.
Thomas De Gendt64 pt.
Sprint
Michael Matthews359 pt.
André Greipel234 pt.
Edvald Boasson Hagen220 pt.
Youth
Simon Yates86:27:09
Louis Meintjes86:29:15
Emanuel Buchmann86:54:16
Facts from Tour de France 1948
  |   Stages.  |   Stage winners.  |   Days in yellow  |   Average speed.  |   Route.  |   Teams.  |   All riders.  |   Rookies.  |   Withdrawls.  |  

  |   GC.  |   Polka  |   Green  |   White  |   Summits. (In tour)  |   Summits. (Points)  |   Miscellaneous.  |  

Stage 10 on 11 - 07 - 1948
         Owning:    Louison Bobet    
Pick a stage:  1 2 3 4 5 6 7 8 9 10 11 12 13 14 15 16 17 18 19 20 21
  MontpellierMarseille | Dist: 248.00 km.

Average speed for all riders in stage:  34,940 km./hr.
    Place:Name:Team:Time:Km/h:
BELRaymond ImpanisBELBelgium06:55:40  +  00:00:00=35,798 
ITAFermo CamelliniINTInternations06:55:40  +  00:00:00=35,798 
ITAPaul NeriINTInternations06:55:40  +  00:00:00=35,798 
4 BELStan OckersBELBelgium06:55:40  +  00:00:00=35,798 
5 FRAAndré BruléFRAParis06:55:40  +  00:00:00=35,798 
6 BELRoger LambrechtINTInternations06:55:40  +  00:00:00=35,798 
7 BELMarcel DupontBELAiglons Belges06:55:40  +  00:00:00=35,798 
8 SUIPierre BrambillaINTInternations06:55:40  +  00:00:00=35,798 
9 FRAGuy LapébieFRACenter-South West06:56:50  +  00:01:10=35,698 
10 BELEdward Van DijckBELBelgium06:56:50  +  00:01:10=35,698 
11 FRARené ViettoFRAFrance06:56:50  +  00:01:10=35,698 
12 NEDWim De RuyterINTHolland-Luxembourg06:56:50  +  00:01:10=35,698 
13 ITAGino BartaliITAItaly06:58:00  +  00:02:20=35,598 
14 BELFlorent MathieuBELBelgium06:58:00  +  00:02:20=35,598 
15 BELAlbert RamonBELBelgium06:58:00  +  00:02:20=35,598 
16 MEXAttilio LambertiniITACadetti Italiens06:58:00  +  00:02:20=35,598 
17 BELBriek SchotteBELBelgium06:58:00  +  00:02:20=35,598 
18 BELLucien MathysBELAiglons Belges06:58:00  +  00:02:20=35,598 
19 ITAAldo RonconiITACadetti Italiens06:58:00  +  00:02:20=35,598 
20 FRARaphaël GeminianiFRACenter-South West07:00:45  +  00:05:05=35,365 
21 ITABruno PasquiniITAItaly07:01:40  +  00:06:00=35,289 
22 FRABernard GauthierFRASouth-East07:03:11  +  00:07:31=35,162 
23 NEDJoseph JanssenINTHolland-Luxembourg07:03:11  +  00:07:31=35,162 
24 FRAMaurice DiotFRAParis07:03:54  +  00:08:14=35,103 
25 FRAPierre BaratinFRAIle De France-North East07:03:54  +  00:08:14=35,103 
26 ITAUrbain CaffiFRAIle De France-North East07:04:29  +  00:08:49=35,054 
27 BELRené MertensBELBelgium07:04:29  +  00:08:49=35,054 
28 FRARaoul RemyFRASouth-East07:04:29  +  00:08:49=35,054 
29 FRAJean-Apotre LazaridesFRAFrance07:04:29  +  00:08:49=35,054 
30 ITAAlfred MacorigFRACenter-South West07:04:29  +  00:08:49=35,054 
31 FRAGeorges RamouluxFRACenter-South West07:04:29  +  00:08:49=35,054 
32 ITAVittorio SeghezziITACadetti Italiens07:04:29  +  00:08:49=35,054 
33 FRAMaurice De MuerFRAIle De France-North East07:04:29  +  00:08:49=35,054 
34 FRAAmédée RollandFRASouth-East07:04:29  +  00:08:49=35,054 
35 FRAKléber PiotFRAParis07:04:29  +  00:08:49=35,054 
36 FRALouis ThiétardFRAParis07:04:29  +  00:08:49=35,054 
37 FRAPierre CoganFRAWest07:04:29  +  00:08:49=35,054 
38 FRARoger ChupinFRAWest07:04:29  +  00:08:49=35,054 
39 FRARobert BonnaventureFRAWest07:04:29  +  00:08:49=35,054 
40 FRARobert ChapatteFRAParis07:04:29  +  00:08:49=35,054 
41 FRADaniel ThuayreFRAIle De France-North East07:04:29  +  00:08:49=35,054 
42 FRAAlphonse De VreeseFRAIle De France-North East07:04:29  +  00:08:49=35,054 
43 FRAPierre MolinerisFRASouth-East07:04:29  +  00:08:49=35,054 
44 FRAJacques MarinelliFRAParis07:04:29  +  00:08:49=35,054 
45 ITAEnzo CoppiniITACadetti Italiens07:04:29  +  00:08:49=35,054 
46 FRAPaul GiguetFRAFrance07:04:29  +  00:08:49=35,054 
47 FRALouison BobetFRAFrance07:04:29  +  00:08:49=35,054 
48 GEREdouard KlabinskiINTInternations07:04:29  +  00:08:49=35,054 
49 ITAGino SciardisINTInternations07:04:29  +  00:08:49=35,054 
50 ITAPrimo VolpiITAItaly07:04:29  +  00:08:49=35,054 
51 ITAGiuseppe TaccaINTInternations07:04:29  +  00:08:49=35,054 
52 ITASerifano BiagioniITAItaly07:04:29  +  00:08:49=35,054 
53 ITAGiovanni CorrieriITAItaly07:04:29  +  00:08:49=35,054 
54 LUXJean KirchenINTHolland-Luxembourg07:04:29  +  00:08:49=35,054 
55 FRAJean RobicFRAFrance07:04:29  +  00:08:49=35,054 
56 FRALucien TeisseireFRAFrance07:04:29  +  00:08:49=35,054 
57 BELAndré RosseelBELAiglons Belges07:04:29  +  00:08:49=35,054 
58 BELMaurice MollinBELAiglons Belges07:04:29  +  00:08:49=35,054 
59 BELMaurice MeersmanBELAiglons Belges07:04:29  +  00:08:49=35,054 
60 NEDHenk de HoogINTHolland-Luxembourg07:04:29  +  00:08:49=35,054 
61 LUXWilly KempINTHolland-Luxembourg07:04:29  +  00:08:49=35,054 
62 BELJean EngelsBELAiglons Belges07:04:29  +  00:08:49=35,054 
63 ITAGiordano CotturITAItaly07:11:54  +  00:16:14=34,452 
64 FRAJean-Marie GoasmatFRAWest07:11:54  +  00:16:14=34,452 
65 FRAJacques PrasFRACenter-South West07:15:20  +  00:19:40=34,181 
66 FRAJean ReyFRASouth-East07:15:34  +  00:19:54=34,162 
67 FRARaymond GoussotFRAParis07:15:34  +  00:19:54=34,162 
68 FRAEdouard MullerFRAIle De France-North East07:15:34  +  00:19:54=34,162 
69 FRAFrancois HelaryFRAIle De France-North East07:19:29  +  00:23:49=33,858 
70 FRAJean De GribaldyFRAIle De France-North East07:19:29  +  00:23:49=33,858 
71 FRAMaurice CarpentierFRAWest07:19:29  +  00:23:49=33,858 
72 ITAAntonio BevilacquaITAItaly07:22:56  +  00:27:16=33,594 
73 FRAGeorges MartinFRASouth-East07:24:00  +  00:28:20=33,514 
74 FRADaniel OrtsFRACenter-South West07:24:00  +  00:28:20=33,514 
75 BELVictor JolyINTInternations07:24:00  +  00:28:20=33,514 
76 BELAndré DeclerckBELBelgium07:24:00  +  00:28:20=33,514 
77 ITAEgidio FeruglioITAItaly07:26:32  +  00:30:52=33,323 
78 BELRik RendersBELAiglons Belges07:26:32  +  00:30:52=33,323 
79 BELLeon JomauxBELAiglons Belges07:26:32  +  00:30:52=33,323 

Withdrawls: 6
 
Rider
Team
Reason
14  NEDBernard FrankenINTHolland-LuxembourgDid not finish
43  FRACamille DanguillaumeFRAFranceDid not finish
58  BELFlorent RondeléBELAiglons BelgesDid not finish
77  FRAPaul MayeFRACenter-South WestDid not finish
96  FRARaymond GueganFRAWestDid not finish
97  FRAYvan MarieFRAWestDid not finish

Todays birthdays.

1885  Alfons Lauwers
1886  Leon Kopp
1892  Camille Leroy
1894  Charles Martinet
1912  Karl Litschi
1935  Francois Goasduff
1937  Ezio Pizzoglio
1942  Paul Köchli
1945  Harry Steevens
1949  Pedro Torres
1963  Dante Rezze
1970  Gilles Talmant
1976  Remmert Wielinga
1987  Jonathan Castroviejo




Visits: